Temperature
23 21 21 21 21 22 22 21 21 21 20 19 18 18 17 17 17 17 17 17 18 18 18 18 18 18 18 18 18 18 18 18 18 17 17 17 16 16 16 15 15 15 14 14
21 21 22 23 22 22 22 21 21 20 20 19 18 18 18 17 17 17 17 17 18 18 18 18 18 18 18 18 18 18 18 18 18 17 17 17 16 16 16 15 15 14 14 14
23 23 24 24 23 23 22 21 21 20 19 18 18 18 18 17 17 17 17 18 18 18 18 18 17 18 18 18 18 18 18 18 18 17 17 17 16 16 15 15 15 14 14 14
22 23 24 24 24 23 22 22 21 20 19 17 18 17 18 17 17 17 17 17 17 18 18 18 18 17 18 18 18 17 17 17 17 17 17 17 17 16 16 15 15 14 14 14
23 24 25 24 24 23 22 20 19 19 18 17 17 17 17 17 17 17 17 18 18 18 18 18 18 18 18 18 18 18 17 17 17 17 17 17 16 16 16 15 15 15 14 14
23 24 24 24 23 22 20 19 18 16 16 18 18 17 18 17 17 18 17 18 18 18 18 18 19 18 18 18 18 18 17 18 18 18 17 17 17 16 16 15 15 15 14 14
23 24 24 23 22 21 21 19 18 19 17 18 17 17 17 18 18 18 18 19 19 19 19 19 19 19 19 18 18 18 18 18 18 18 17 17 17 16 16 15 15 15 14 14
23 23 24 23 23 21 20 20 19 20 19 18 18 18 18 19 20 20 20 20 20 20 20 20 20 19 19 19 19 19 18 18 18 18 18 17 17 16 16 16 15 15 15 14
21 23 24 24 23 22 21 19 18 17 18 18 18 18 19 20 19 18 19 19 20 20 20 20 20 20 20 20 19 19 19 19 19 18 18 17 17 16 16 16 15 15 15 14
22 23 23 23 23 22 21 17 16 17 18 19 19 19 19 20 20 19 18 19 21 21 21 21 21 21 21 20 20 20 20 19 19 19 18 18 17 17 16 16 16 15 15 15
21 22 23 22 23 22 20 19 16 15 16 18 19 19 19 19 19 19 19 21 22 22 22 22 22 21 21 21 21 20 20 20 19 19 19 18 17 17 16 16 16 15 15 15
20 19 20 21 21 21 21 20 17 18 18 16 17 18 20 19 19 19 20 22 23 23 23 23 22 22 22 21 21 21 20 20 20 19 19 18 18 17 17 17 16 16 16 16
19 19 20 21 20 21 21 19 17 15 15 14 17 19 20 18 19 20 20 22 23 23 23 23 23 23 22 22 22 21 21 21 20 20 19 19 18 18 18 17 17 17 16 16
19 18 20 21 20 20 21 20 17 16 16 16 16 18 19 19 18 18 20 22 23 23 23 23 23 23 23 23 22 22 22 21 21 20 20 19 19 19 18 18 17 17 17 16
20 20 20 20 21 20 21 20 19 18 17 17 18 18 19 18 17 18 19 21 22 22 23 23 23 23 23 23 22 22 22 21 21 20 20 20 19 19 18 18 18 17 17 17
18 20 20 21 21 21 21 21 20 19 19 18 18 18 18 16 17 16 17 19 19 21 22 22 23 23 23 23 23 22 22 22 21 21 20 20 20 19 19 18 18 18 17 17
17 18 19 19 20 21 20 20 20 19 18 18 18 18 16 15 14 14 15 17 18 20 21 22 22 22 23 23 23 22 22 22 21 21 20 20 20 19 19 18 18 18 17 17
16 16 16 17 20 20 19 19 19 18 17 16 16 16 15 15 14 14 15 17 18 19 20 21 21 22 22 22 22 22 22 21 21 20 20 20 19 19 19 18 18 18 17 17
15 15 15 16 18 19 19 18 18 18 18 16 15 15 16 16 16 15 15 17 18 18 19 19 20 20 21 21 21 21 21 20 20 19 19 19 19 18 18 18 18 18 17 17
14 14 15 15 18 18 19 18 18 18 18 17 16 15 16 16 15 14 15 16 17 18 18 18 19 19 20 19 19 20 19 19 18 18 18 18 17 17 17 17 17 17 16 16
16 15 15 16 17 17 18 17 18 18 18 17 17 16 16 15 14 14 15 16 17 17 17 18 18 18 18 17 18 18 17 17 16 16 16 16 16 16 16 16 16 15 15 15
16 16 15 14 16 17 17 17 17 17 17 17 17 17 16 15 14 15 15 16 16 16 17 17 17 16 16 16 16 16 15 15 15 15 15 15 15 14 14 14 14 14 14 14
15 15 14 15 16 16 16 16 17 17 17 17 17 16 16 15 15 15 15 15 15 15 15 15 15 15 15 14 14 14 13 13 13 13 13 13 13 13 13 13 13 13 13 12
15 13 13 14 14 15 16 16 17 17 18 17 17 16 16 15 15 15 15 14 14 14 14 14 14 14 13 13 13 12 12 12 12 12 12 12 12 12 12 12 11 11 11 11
16 13 14 14 14 15 16 16 17 17 17 17 16 16 16 15 15 15 14 14 14 14 13 13 13 13 12 12 12 12 11 11 11 11 11 11 11 11 10 10 10 10 10 10
13 13 14 15 15 14 16 17 17 17 17 16 16 15 15 15 15 14 14 14 13 13 13 12 12 12 11 11 11 11 11 11 10 10 10 10 10 10 10 10 10 10 9 9
Wind_Speed
1 2 6 9 10 8 5 5 6 4 0 2 3 3 3 3 3 4 5 6 7 7 6 7 9 9 8 7 7 7 8 7 7 5 5 4 3 2 2 2 4 5 6 6
3 6 10 6 4 5 5 4 4 2 2 1 2 3 3 4 5 5 6 7 7 5 5 6 8 9 9 8 7 7 8 8 7 5 4 3 4 3 2 2 3 4 5 6
8 9 4 3 2 1 3 4 4 2 2 4 3 4 2 2 2 3 4 5 6 8 9 9 10 10 10 10 10 9 8 8 7 6 5 5 4 3 2 1 2 3 5 5
8 7 2 3 3 4 4 3 3 4 3 3 4 3 5 3 3 5 6 5 6 7 8 9 10 10 11 10 9 8 8 8 7 7 7 7 5 4 5 3 3 3 4 5
7 3 3 5 5 5 3 4 5 4 4 3 4 1 7 1 4 7 8 8 7 8 9 10 10 11 11 10 10 8 8 7 7 7 8 7 5 4 3 2 3 3 2 4
9 4 4 4 2 4 6 6 6 5 5 3 2 0 6 4 6 5 7 9 9 9 9 9 8 8 8 8 8 8 8 7 7 8 7 8 8 7 5 4 4 3 2 2
6 4 2 3 4 3 4 5 5 6 5 4 2 2 8 7 6 7 8 10 9 8 9 9 9 10 10 10 10 9 9 9 8 8 8 8 9 9 8 6 6 5 3 3
3 6 3 3 5 6 4 7 6 3 4 5 2 4 7 5 4 5 6 7 8 8 9 10 11 11 11 12 11 11 11 10 9 9 9 8 8 7 6 6 6 6 5 5
8 6 2 1 2 7 6 3 5 6 2 2 6 7 8 1 1 3 5 7 9 10 11 11 11 11 12 12 13 13 12 11 10 10 9 8 9 8 8 7 6 5 5 4
9 5 3 1 5 5 4 8 6 5 3 3 6 5 5 5 3 4 6 8 10 9 10 11 11 12 12 12 11 10 11 11 10 10 10 9 9 9 8 7 7 7 6 5
5 5 2 2 2 3 3 4 5 5 5 5 3 7 6 7 7 8 9 9 10 11 12 12 11 11 10 9 9 10 10 10 9 10 10 10 9 9 8 8 8 8 7 7
4 5 1 3 2 1 3 6 7 4 4 5 4 8 5 6 6 7 9 9 8 10 10 10 10 9 9 10 10 11 11 11 11 11 10 11 9 9 9 9 9 8 8 8
6 6 3 5 5 2 1 3 5 6 5 5 5 7 4 3 2 4 6 7 8 9 9 8 8 9 10 11 11 11 12 13 11 10 11 10 10 10 11 11 10 9 9 9
6 5 6 8 8 5 3 4 6 6 5 5 8 8 8 7 7 6 5 6 6 7 8 8 9 9 10 10 11 11 12 12 11 11 11 12 13 13 12 11 10 10 10 10
5 5 6 6 4 4 5 5 7 8 8 8 8 7 8 6 6 7 5 2 3 4 5 7 8 8 8 8 9 10 10 9 10 11 12 13 12 10 10 10 10 10 10 11
3 4 3 2 1 3 3 5 6 6 5 7 5 6 3 4 3 4 5 3 2 1 2 3 4 5 7 9 9 9 9 9 9 11 13 11 9 9 10 10 10 10 10 10
3 6 4 3 2 2 5 5 5 4 4 6 7 5 1 4 6 5 6 5 4 3 3 2 2 3 4 5 6 8 8 7 8 10 9 8 9 10 11 11 10 11 11 10
6 5 4 2 2 5 7 2 4 5 3 3 3 2 3 5 4 6 7 7 7 7 7 6 5 3 3 2 0 2 3 4 6 6 6 6 7 9 8 8 10 11 9 9
4 6 5 4 3 5 5 2 4 5 3 4 5 4 4 5 4 8 9 9 8 8 7 7 6 5 6 6 3 4 4 3 2 3 4 5 6 7 7 9 11 9 8 10
6 5 5 4 4 6 7 2 2 3 4 5 6 5 2 2 3 2 6 8 10 10 9 9 8 11 11 9 7 8 6 6 3 3 2 1 2 5 7 8 8 6 7 9
3 4 4 4 4 7 5 2 4 4 7 3 5 3 3 3 4 3 4 7 9 9 10 10 11 12 10 8 9 10 8 6 4 4 4 4 3 2 3 4 4 5 6 6
6 5 4 5 3 7 3 4 6 6 1 3 4 5 7 8 8 7 8 9 9 10 11 11 12 11 9 9 10 10 8 6 5 6 6 6 5 4 4 3 3 3 4 5
6 7 6 8 7 5 3 5 2 3 4 4 5 7 10 10 8 8 8 8 8 9 9 8 9 9 9 9 9 9 6 5 6 7 7 6 6 5 4 4 4 3 3 4
3 3 4 4 7 5 4 3 3 4 5 6 9 10 11 11 9 9 7 7 7 7 7 6 8 9 8 7 7 5 4 5 6 6 6 5 5 6 5 4 3 3 4 4
5 6 4 5 6 3 3 4 5 6 8 9 9 9 11 12 10 8 7 6 5 5 4 5 6 6 5 5 6 6 5 5 6 5 5 5 5 5 5 5 4 5 5 6
4 7 7 7 7 6 4 3 6 9 9 11 12 10 8 9 9 7 6 4 4 4 3 4 4 4 3 4 5 5 5 4 4 4 5 4 5 5 5 6 7 8 8 12
Wind_Direction
52 36 256 241 217 226 241 242 264 267 177 155 239 262 242 187 200 214 206 198 209 204 190 171 164 157 155 155 154 154 147 147 141 137 137 138 148 144 135 160 157 148 140 128
358 271 248 247 224 214 220 247 262 312 35 81 320 294 233 199 211 216 209 203 201 186 163 160 156 158 163 160 163 163 164 164 165 156 149 143 135 138 143 152 160 170 163 150
225 253 287 311 306 210 229 215 229 195 66 35 9 339 285 251 222 224 223 209 197 182 179 176 170 170 167 171 174 178 179 176 168 149 122 102 85 78 97 153 187 197 186 174
239 260 270 295 270 191 253 254 162 123 100 351 27 316 292 259 265 237 229 215 204 189 180 181 175 177 180 182 179 179 179 176 168 157 154 152 158 172 194 187 191 192 189 187
256 252 297 285 265 181 180 67 83 86 105 36 21 14 294 297 256 242 227 218 207 196 188 188 186 184 184 179 180 181 177 179 174 170 168 160 162 170 160 156 177 189 199 203
253 254 226 224 23 114 123 76 61 57 64 9 315 72 289 246 228 228 214 213 209 199 195 193 187 176 179 178 179 179 179 190 184 178 175 175 173 168 163 176 187 197 207 218
299 298 240 140 96 52 85 83 22 358 5 279 265 235 256 252 229 208 199 202 203 198 193 193 188 183 186 186 188 186 187 198 191 185 187 188 182 176 182 186 192 191 196 207
236 286 263 185 170 175 178 141 152 221 255 290 311 258 259 262 244 204 188 185 188 194 197 197 197 193 194 196 194 192 196 202 193 192 197 191 184 182 190 191 189 195 200 206
191 240 285 196 156 138 140 151 151 132 140 313 297 292 304 319 142 177 180 181 193 199 200 202 200 199 197 198 200 198 199 203 199 198 194 192 190 190 195 194 192 196 202 206
165 206 281 326 80 48 121 139 101 115 140 287 304 296 269 272 223 202 198 202 208 202 202 205 205 204 203 204 203 197 199 204 203 197 196 201 198 198 195 187 194 200 204 203
151 164 282 36 130 171 109 96 104 111 146 160 268 279 233 229 220 209 215 214 209 204 205 206 208 207 203 200 198 198 201 203 201 199 199 199 200 197 191 194 202 202 202 200
148 129 179 275 282 177 166 165 149 151 203 174 190 267 270 241 233 218 221 220 216 211 210 208 205 199 197 200 201 203 203 206 208 201 196 201 198 191 195 205 208 203 205 207
138 116 87 353 343 347 129 144 137 124 119 155 179 263 294 338 303 248 236 234 221 213 212 209 204 202 205 206 205 206 206 210 206 193 195 198 199 198 205 210 209 205 209 212
120 122 163 192 217 206 212 184 154 136 154 198 222 253 299 322 319 301 259 235 225 218 213 211 213 214 212 210 208 207 211 208 197 190 195 203 207 207 210 210 208 209 210 213
113 163 201 225 223 180 212 216 183 187 194 197 230 231 266 293 296 299 292 241 193 220 222 221 223 224 219 214 211 210 212 203 191 191 201 212 212 207 207 209 212 213 213 219
94 151 160 257 253 198 233 244 211 213 209 221 244 258 273 317 341 358 7 35 63 346 279 259 244 233 223 218 216 212 211 199 186 198 211 213 204 204 210 215 215 216 220 221
121 133 138 241 323 30 263 234 197 200 210 196 214 231 18 39 34 20 22 39 45 33 21 355 306 275 260 241 219 214 211 186 188 207 216 212 207 212 216 217 216 221 224 222
133 124 134 147 91 236 252 271 170 166 212 218 209 169 126 119 98 53 38 44 42 34 30 19 13 10 350 337 246 174 142 163 194 216 227 222 215 224 224 219 225 228 224 222
126 135 125 133 186 267 279 209 166 169 242 205 181 176 166 162 97 41 27 40 47 42 39 31 27 29 34 32 41 89 92 109 152 227 239 232 222 229 227 228 235 231 224 229
60 85 115 131 170 237 250 215 162 117 279 215 180 190 198 142 86 29 10 36 47 48 48 44 41 47 43 30 49 69 63 58 33 351 335 312 236 233 239 243 245 238 231 239
71 62 115 157 211 260 253 178 125 173 243 199 158 149 110 93 124 134 61 53 52 53 51 51 55 52 40 34 57 61 52 40 18 26 38 37 26 307 269 264 256 252 249 253
164 153 168 145 190 259 211 145 185 213 183 118 114 107 107 106 99 89 74 63 56 57 55 55 59 52 37 37 58 59 43 25 35 47 46 37 28 18 6 339 310 285 268 270
188 187 184 187 212 241 209 206 217 163 144 134 125 121 121 112 102 90 77 69 62 60 58 56 64 57 40 35 51 57 24 20 42 45 37 24 14 9 1 353 337 329 311 287
226 151 152 238 263 255 233 213 189 160 142 135 132 129 124 117 112 102 91 80 69 60 57 57 63 58 39 25 35 35 10 23 45 38 21 12 7 355 350 345 331 321 311 303
209 161 178 247 268 284 258 201 157 126 119 113 109 112 119 118 113 110 102 91 83 74 63 66 72 64 37 19 20 12 11 29 39 27 11 0 354 345 339 334 316 305 284 275
197 180 184 228 226 193 216 164 140 125 120 118 115 105 108 115 116 110 104 100 95 87 78 73 66 53 20 8 1 355 3 22 31 11 351 341 334 329 326 322 318 299 286 291
Height
1505 1509 1511 1506 1504 1503 1504 1508 1510 1505 1501 1504 1507 1506 1504 1503 1505 1506 1507 1508 1509 1511 1513 1516 1518 1521 1525 1528 1531 1534 1538 1541 1543 1546 1548 1550 1551 1552 1553 1554 1554 1554 1554 1553
1509 1510 1498 1496 1496 1499 1503 1507 1507 1504 1502 1504 1507 1506 1503 1502 1503 1504 1505 1506 1507 1509 1511 1513 1516 1520 1523 1525 1530 1534 1537 1541 1543 1546 1548 1550 1551 1552 1552 1553 1553 1554 1554 1553
1509 1500 1492 1494 1496 1500 1502 1505 1504 1506 1505 1506 1507 1509 1505 1502 1503 1503 1504 1504 1506 1507 1509 1512 1515 1518 1522 1526 1529 1533 1537 1540 1543 1545 1547 1549 1550 1551 1551 1552 1553 1553 1553 1553
1503 1494 1493 1494 1496 1497 1504 1497 1498 1504 1512 1518 1515 1523 1508 1504 1503 1501 1502 1503 1504 1506 1508 1511 1514 1516 1520 1524 1528 1532 1536 1539 1542 1544 1546 1547 1548 1549 1550 1551 1552 1552 1552 1552
1499 1492 1493 1495 1493 1493 1498 1497 1501 1507 1514 1520 1519 1523 1515 1505 1504 1500 1499 1500 1502 1504 1506 1509 1512 1515 1519 1523 1528 1532 1535 1538 1541 1543 1545 1546 1547 1548 1549 1550 1550 1550 1551 1551
1492 1488 1489 1489 1489 1490 1495 1501 1507 1516 1522 1528 1521 1525 1519 1507 1500 1496 1495 1497 1499 1502 1505 1507 1510 1514 1518 1522 1527 1530 1534 1537 1540 1542 1544 1545 1546 1547 1547 1548 1548 1549 1549 1549
1496 1489 1486 1486 1493 1495 1498 1512 1528 1529 1536 1531 1520 1522 1515 1495 1491 1491 1491 1494 1497 1500 1503 1506 1509 1513 1517 1520 1524 1528 1531 1535 1538 1540 1542 1543 1544 1545 1546 1546 1546 1547 1547 1547
1505 1504 1487 1485 1489 1496 1499 1507 1527 1535 1537 1531 1520 1520 1503 1489 1487 1488 1489 1492 1495 1498 1501 1504 1508 1511 1515 1518 1522 1526 1529 1532 1535 1538 1540 1541 1542 1543 1544 1544 1544 1544 1545 1545
1503 1501 1484 1482 1483 1488 1500 1506 1508 1524 1528 1532 1523 1512 1496 1487 1487 1488 1489 1492 1494 1496 1500 1503 1506 1510 1513 1516 1520 1523 1527 1530 1533 1535 1537 1538 1540 1540 1541 1541 1542 1542 1543 1543
1488 1497 1487 1483 1483 1488 1492 1502 1515 1524 1532 1534 1524 1516 1508 1492 1489 1488 1489 1490 1491 1495 1498 1501 1504 1507 1511 1514 1518 1521 1524 1527 1530 1532 1534 1535 1537 1538 1538 1539 1539 1540 1540 1541
1483 1495 1493 1489 1490 1493 1497 1504 1513 1524 1525 1534 1533 1519 1492 1488 1485 1485 1485 1486 1488 1492 1495 1498 1501 1505 1508 1512 1515 1518 1521 1524 1526 1528 1530 1532 1533 1534 1535 1536 1536 1537 1537 1538
1483 1493 1501 1494 1489 1487 1490 1497 1508 1518 1522 1528 1530 1517 1483 1482 1480 1481 1482 1483 1486 1489 1492 1495 1498 1502 1505 1508 1511 1514 1517 1520 1522 1524 1526 1528 1530 1531 1531 1532 1533 1534 1534 1535
1481 1494 1507 1506 1502 1493 1492 1495 1502 1511 1521 1529 1529 1510 1481 1480 1479 1479 1479 1480 1483 1486 1489 1492 1495 1498 1501 1504 1507 1510 1513 1515 1518 1520 1522 1524 1525 1526 1527 1528 1530 1530 1531 1532
1475 1490 1500 1506 1503 1494 1493 1494 1500 1506 1518 1522 1516 1501 1485 1481 1479 1477 1477 1477 1479 1482 1486 1489 1492 1494 1497 1500 1503 1506 1508 1511 1513 1515 1517 1519 1520 1522 1523 1525 1526 1527 1528 1528
1474 1487 1488 1488 1485 1487 1488 1489 1493 1498 1501 1506 1498 1495 1486 1482 1480 1477 1475 1475 1477 1479 1482 1485 1488 1490 1493 1495 1498 1501 1503 1506 1509 1511 1512 1514 1516 1518 1520 1521 1522 1523 1524 1524
1476 1483 1486 1486 1483 1484 1487 1485 1486 1489 1490 1492 1491 1489 1481 1481 1479 1477 1475 1475 1475 1477 1479 1481 1484 1486 1488 1491 1493 1496 1499 1501 1504 1506 1508 1510 1512 1513 1515 1516 1518 1519 1519 1520
1479 1484 1492 1495 1488 1486 1492 1484 1483 1485 1484 1485 1488 1485 1482 1482 1481 1479 1476 1476 1476 1476 1477 1479 1481 1483 1485 1487 1489 1492 1494 1497 1499 1501 1503 1505 1507 1508 1510 1512 1513 1513 1514 1515
1479 1486 1494 1497 1494 1502 1489 1477 1477 1481 1482 1481 1481 1481 1481 1482 1482 1481 1479 1477 1476 1477 1478 1479 1480 1482 1483 1485 1486 1488 1490 1492 1494 1496 1498 1500 1502 1503 1505 1506 1507 1508 1508 1509
1475 1484 1495 1501 1501 1495 1484 1477 1478 1481 1481 1478 1479 1480 1480 1481 1481 1482 1481 1479 1478 1479 1480 1481 1482 1482 1483 1484 1485 1486 1487 1489 1490 1492 1493 1494 1496 1497 1498 1499 1500 1501 1501 1501
1478 1481 1492 1499 1499 1500 1483 1475 1474 1479 1483 1475 1476 1478 1479 1479 1484 1488 1484 1482 1482 1482 1482 1483 1483 1483 1483 1484 1484 1484 1485 1486 1487 1488 1489 1490 1491 1491 1492 1493 1493 1494 1494 1493
1484 1489 1493 1497 1497 1490 1475 1473 1476 1488 1482 1473 1474 1476 1478 1479 1483 1486 1485 1484 1484 1484 1484 1485 1485 1484 1484 1485 1485 1484 1485 1485 1486 1486 1486 1486 1486 1486 1486 1486 1486 1486 1485 1485
1483 1489 1493 1498 1498 1491 1471 1473 1476 1475 1471 1471 1473 1475 1477 1480 1483 1485 1486 1486 1486 1487 1486 1487 1486 1486 1487 1487 1486 1485 1484 1485 1485 1485 1484 1483 1483 1482 1482 1481 1480 1479 1478 1477
1478 1478 1481 1483 1481 1471 1468 1469 1469 1470 1470 1471 1473 1476 1478 1481 1484 1486 1487 1488 1489 1490 1489 1489 1489 1489 1489 1488 1487 1486 1486 1486 1485 1483 1482 1481 1481 1480 1478 1477 1475 1474 1472 1471
1472 1472 1474 1475 1469 1466 1466 1466 1467 1468 1469 1471 1474 1477 1479 1482 1485 1488 1490 1491 1492 1492 1492 1492 1492 1491 1490 1490 1489 1488 1487 1486 1484 1483 1481 1480 1479 1477 1476 1474 1472 1470 1467 1465
1466 1470 1472 1472 1466 1464 1463 1464 1466 1468 1470 1472 1475 1478 1481 1483 1487 1489 1491 1492 1493 1494 1494 1494 1493 1492 1492 1491 1490 1489 1487 1486 1484 1482 1480 1479 1477 1475 1472 1470 1468 1466 1464 1462
1465 1466 1469 1467 1461 1462 1461 1463 1466 1468 1470 1473 1476 1480 1484 1486 1489 1491 1493 1494 1495 1495 1495 1494 1493 1493 1492 1491 1489 1488 1486 1485 1483 1481 1479 1477 1474 1471 1469 1466 1463 1461 1459 1456